Regional Weather Roundup
Issued by NWS Grand Forks, ND

Home | Current Version | Previous Version | Text Only | Print | Product List | Glossary On
Versions: 1 2 3 4 5 6 7 8 9 10 11 12 13 14 15 16 17 18 19 20 21 22 23 24 25 26 27 28 29 30 31 32 33 34 35 36 37 38 39 40 41 42 43 44 45 46 47 48 49 50
000
ASUS43 KFGF 031431
RWRFGF
PRAIRIE TO PINES  WEATHER ROUNDUP
NATIONAL WEATHER SERVICE EASTERN NORTH DAKOTA/GRAND FORKS ND
900 AM CDT TUE MAY 03 2016

 **SATELLITE DATA USED TO AUGMENT SKY COVER AT AUTOMATED STATIONS**
 *****  WEATHER ACROSS EASTERN NORTH DAKOTA  *****

CITY           SKY/WX    TMP DP  RH WIND       PRES   REMARKS
GRAND FORKS    MOSUNNY   61  39  44 NW23G30   29.85R
GRAND FRKS AFB SUNNY     61  38  41 N23       29.86
DEVILS LAKE    MOSUNNY   56  39  53 N16       29.93R
FARGO          MOSUNNY   58  43  57 SW14      29.89F
WAHPETON ARPT  MOSUNNY   55  43  62 W16       29.92F
$$

 ***** WEATHER ACROSS CENTRAL AND WESTERN NORTH DAKOTA  *****

CITY           SKY/WX    TMP DP  RH WIND       PRES   REMARKS
BISMARCK       SUNNY     52  39  61 W13       30.01S
MINOT          SUNNY     63  32  31 NW17      29.99R
JAMESTOWN      MOSUNNY   58  44  60 W15       29.92F
MINOT AFB      SUNNY     58  35  42 N15       29.98
GARRISON         N/A     58  38  47 NW13      29.99S
WILLISTON      SUNNY     52  37  56 CALM      30.06R
DICKINSON      SUNNY     53  37  54 NW10      30.04R
HETTINGER      MOSUNNY   55  40  56 W8        30.07S
$$

 *****  OTHER AIRPORT OBSERVATIONS IN OUR AREA  *****

CITY           SKY/WX    TMP DP  RH WIND       PRES   REMARKS
WALHALLA       NOT AVBL
GRAFTON AIRPOR FAIR      59  37  44 N21G29    29.88R
VALLEY CITY AR FAIR      59  45  58 W16       29.92F
CANDO          FAIR      59  34  38 N20       29.96S
CAVALIER APRT  FAIR      55  34  44 N18G28    29.90R
GWINNER        FAIR      55  46  71 W12       29.94F
SHEYENNE NWR     N/A     54  44  70 W9        29.95
ROLLA          NOT AVBL
 ***** THE ABOVE OBSERVATIONS ARE NON NWS ARE NOT QUALITY
       CONTROLLED AND MAY MIS-REPORT RAIN FOR SNOW...
$$

  *****  WEATHER ACROSS NORTHERN MINNESOTA  *****

CITY           SKY/WX    TMP DP  RH WIND       PRES   REMARKS
FLAG ISLAND    SUNNY     54  34  47 NW20      29.77R
WARROAD        SUNNY     57  41  54 NW8       29.80R
ROSEAU         SUNNY     59  37  44 N16       29.81R
HALLOCK        MOSUNNY   57  36  44 N20G25    29.85R
THF RVR FALLS  CLOUDY    57  36  44 NW17      29.83F
BAUDETTE       PTSUNNY   57  38  48 NW17      29.76S
WASKISH        CLOUDY    55  43  62 W12       29.78R
CROOKSTON      CLOUDY    61  39  44 NW22G28   29.85F
STEPHEN NDAWN    N/A     59  39  47 NW18        N/A
GREENBUSH NDAW   N/A     55  39  54 N14         N/A
$$
  *****  WEATHER ACROSS CENTRAL AND WEST MINNESOTA  *****

CITY           SKY/WX    TMP DP  RH WIND       PRES   REMARKS
FOSSTON        MOSUNNY   57  37  47 W13G20    29.84F
BEMIDJI        CLOUDY    58  37  45 W17G26    29.80F
PARK RAPIDS    CLOUDY    59  38  45 W18       29.86F
ELBOW LAKE     FAIR      56  43  62 W14       29.94S
WADENA         PTSUNNY   55  41  58 W16G23    29.87F
DETROIT LAKES  MOSUNNY   55  41  58 W13G23    29.90R
MOORHEAD       MOSUNNY   57  43  58 W10       29.90F
FERGUS FALLS   MOSUNNY   55  43  62 W15G22    29.90F
MORRIS MN      MOSUNNY   61  43  51 W14       29.93F
STAPLES        CLOUDY    57  37  47 W14G22    29.87F
$$
  *****  WEATHER ELSEWHERE ACROSS MINNESOTA  *****

CITY           SKY/WX    TMP DP  RH WIND       PRES   REMARKS
DULUTH         CLOUDY    58  34  40 W18       29.77F
INTRNTL FALLS  CLOUDY    52  37  56 W8        29.72F
ELY            LGT RAIN  52  37  58 W9G18     29.71F
CLOQUET        CLOUDY    59  30  33 W13       29.78F
WHEATON        MOSUNNY   59  46  63 SW9       29.96S
BRAINERD       CLOUDY    56  38  50 W10G21    29.87F
HIBBING        CLOUDY    53  34  48 W12       29.76F
ALEXANDRIA     CLOUDY    55  40  56 W10       29.94F
SAINT CLOUD    MOSUNNY   57  38  48 W14       29.90F
MINNEAPOLIS    PTSUNNY   55  39  54 W8        29.92F
$$

  *****  WEATHER ACROSS SOUTH DAKOTA  *****

CITY           SKY/WX    TMP DP  RH WIND       PRES   REMARKS
SIOUX FALLS    MOSUNNY   54  46  74 W9        30.02F
BROOKINGS      SUNNY     52  46  80 MISG      30.00F
WATERTOWN      SUNNY     53  45  74 W8        29.98F
HURON          SUNNY     50  44  80 VRB6      30.03S
SISSETON         N/A     58  44  60 W12       29.94F
ABERDEEN       MOSUNNY   51  44  77 W6        29.99S
MITCHELL       SUNNY     50  45  83 NW8       30.05S
PIERRE         SUNNY     47  42  83 W7        30.04S
MOBRIDGE       SUNNY     51  45  79 NW8       30.00S
RAPID CITY     MOSUNNY   52  38  58 W6        30.10R
$$

  *****  SOME WEATHER IN NEARBY STATES *****

CITY           SKY/WX    TMP DP  RH WIND       PRES   REMARKS
GLASGOW MT     SUNNY     51  41  68 W3        30.08R
GREAT FALLS MT SUNNY     50  39  66 SW9       30.12S
CHEYENNE WY    PTSUNNY   48  30  49 NW14G20   30.21R
SCOTTSBLUFF NE SUNNY     48  39  71 W8        30.15R
OMAHA NE       SUNNY     53  44  71 CALM      30.07S
DES MOINES IA  MOSUNNY   57  45  64 W5        30.05S
DAVENPORT IA   SUNNY     54  46  74 W9        30.02S
CHICAGO IL     MOSUNNY   56  36  47 W12       29.96F
EAU CLAIRE WI  SUNNY     56  40  55 W9        29.89F
LA CROSSE WI   SUNNY     57  41  55 S8        29.94F
$$

  *****  SOME NATIONAL WEATHER *****

CITY           SKY/WX    TMP DP  RH WIND       PRES   REMARKS
LA GUARDIA NY  LGT RAIN  54  48  82 NE16      29.85F FOG
RALEIGH NC     LGT RAIN  66  65  96 SW6       29.85S
ATLANTA GA     PTSUNNY   69  62  78 W9        29.93R
NEW ORLEANS LA CLOUDY    74  67  78 NE7       29.96S
OKLAHOMA CITY  MOSUNNY   55  46  71 SW12      30.12R
ALBUQUERQUE NM MOSUNNY   51  38  60 CALM      30.21R
SALT LAKE CITY SUNNY     53  36  52 SE6       30.24R
LOS ANGELES CA MOSUNNY   59  56  89 SW3       29.97R
BOISE ID       SUNNY     56  33  42 CALM      30.13R
SEATTLE WA     PTSUNNY   57  51  80 SW5       30.03S
$$

*** WEATHER ACROSS MANITOBA...SASKATCHEWAN AND ONTARIO ***
                ***ONTARIO***

CITY           SKY/WX    TMP DP  RH WIND       PRES   REMARKS
GERALDTON      LGT RAIN  43  41  93 S9        29.59F FOG
THUNDER BAY    LGT RAIN  52  39  62 W8        29.66R
SIOUX LOOKOUT  MOSUNNY   52  37  58 N9        29.68R
TORONTO        MOSUNNY   54  39  58 VRB2      29.90F
BIG TROUT LK   CLOUDY    36  34  93 N13G23    29.74R FOG
PICKLE LAKE    LGT RAIN  37  32  81 N8G20     29.69R
DRYDEN         SUNNY     54  36  50 N10G18    29.69R
KENORA         MOSUNNY   55  30  38 N13G22    29.76R
$$
                *** MANITOBA***

CITY           SKY/WX    TMP DP  RH WIND       PRES   REMARKS
BRANDON        MOSUNNY   57  32  38 N16       29.99R
DAUPHIN        SUNNY     54  34  47 N14       30.03R
ISLAND LAKE    PTSUNNY   37  28  70 N15G25    29.94R
PILOT MOUND      N/A     52  34  50 N15         N/A
THE PAS        SUNNY     43  30  61 NW7       30.10R
THOMPSON       MOSUNNY   37  27  65 N15       30.05R
WINNIPEG       MOSUNNY   55  32  41 N15G23    29.91R
LYNN LAKE      MOSUNNY   39  30  70 N12       30.11R
CHURCHILL      CLOUDY    23  19  86 N21G26    30.09R WCI   8
GILLAM         CLOUDY    30  27  86 N17G24    30.03R WCI  18
$$
                ***SASKATCHEWAN***

CITY           SKY/WX    TMP DP  RH WIND       PRES   REMARKS
ESTEVAN        MOSUNNY   61  37  41 N7        30.04R
KINDERSLEY     MOSUNNY   61  41  48 SW3       30.04S
LLOYDMINSTER   MOSUNNY   66  43  42 S2        30.01S
PRINCE ALBERT  MOSUNNY   55  34  44 E10       30.07S
REGINA         MOSUNNY   59  36  41 E6        30.06R
YORKTON        SUNNY     54  34  47 NE9       30.07R
N. BATTLEFORD  SUNNY     59  41  51 SE10      30.05S
LA RONGE       MOSUNNY   50  30  46 E9        30.10S
SASKATOON      MOSUNNY   63  39  42 SE10      30.05S
SWIFT CURRENT  SUNNY     61  39  44 W10G18    30.07R
$$
NOTE: THESE ARE AUTOMATED STATIONS WITH LIMITED QUALITY CONTROL
      "FAIR" INDICATES FEW OR NO CLOUDS BELOW 12,000 FEET WITH NO
      SIGNIFICANT WEATHER AND/OR OBSTRUCTIONS TO VISIBILITY.
      SKY/WX - SKY CONDITION AND SIGNIFICANT WEATHER.
      TMP - AIR TEMPERATURE.    DP   - DEWPOINT TEMPERATURE.
      RH  - RELATIVE HUMIDITY.  PRES - PRESSURE.
      HX  - HEAT INDEX.         WCI  - WIND CHILL INDEX.
$



USA.gov is the U.S. government's official web portal to all federal, state and local government web resources and services.